アトラス彗星

C/2020 Y2 ( ATLAS )

English version
Home page
Updated on September 18, 2021

---------------------------------------------------------------------

・ プロフィール

発見日 2020年12月28日
発見光度 18.3等
発見者 Asteroid Terrestrial-Impact Last Alert System (ATLAS) search program

・ 写真集

・ 軌道要素

Epoch 2022 June 30.0 TT = JDT 2459760.5
T 2022 June 17.68810 TT                                 Rudenko
q   3.1324322            (2000.0)            P               Q
z  +0.0009205      Peri.  266.10427     -0.14804769     +0.88681197
 +/-0.0000022      Node    26.51451     +0.52180006     +0.44606867
e   0.9971167      Incl.  101.29734     -0.84012295     +0.12077780
From 452 observations 2020 Mar. 25-2021 May 31, mean residual 0".4.

・ 星図

・ 光度変化

        m1 = -1.5 + 5 logΔ + 20.0 log r  [    ,-515]  (              〜2021年 1月18日)
        m1 =  6.0 + 5 logΔ + 10.0 log r  [-515,    ]  (2021年 1月18日〜              )

---------------------------------------------------------------------

軌道要素はM.P.E.C. 2021-L04に掲載されたものです。
星図はステラナビゲータ Ver.10 (アストロアーツ) で作成したものです。
光度グラフはComet for Windowsで作成したものです。

---------------------------------------------------------------------

Copyright(C) Seiichi Yoshida (comet@aerith.net). All rights reserved.